Location: *
(11.7485°N, 79.7483°E)
Time: 02:56:17
(UTC+00:00)

Lacrosse 4 Rocket - Pass Details

Date: 22 January 2021
Orbit: 536 x 621 km, 68.0° (Epoch: 05 March)

Event Time Altitude Azimuth Distance (km) Brightness Sun altitude
Rises 00:16:02 0° 218° (SW) 2,694 4.6 -12.4°
Reaches altitude 10° 00:18:23 10° 229° (SW) 1,812 3.7 -11.9°
Maximum altitude 00:21:57 30° 291° (WNW) 1,007 2.1 -11.0°
Drops below altitude 10° 00:25:37 10° 353° (N) 1,852 3.8 -10.2°
Sets 00:28:03 0° 4° (N) 2,765 4.8 -9.6°
